Location: Filler
(36.7551°N, 30.4456°E)
Time: 21:27:36
(UTC+00:00)

Cosmos 1605 Rocket - Visible Passes

Search period start: 12 September 2024 00:00
Search period end: 22 September 2024 00:00
Orbit: 945 x 1004 km, 82.9° (Epoch: 12 September)

Date Brightness Start Highest point End Pass type
(mag) Time Alt. Az. Time Alt. Az. Time Alt. Az.
12 Sep 4.2 02:07:40 10° N 02:13:56 73° E 02:20:04 10° SSE visible
13 Sep 6.5 00:49:08 10° NNE 00:53:12 18° ENE 00:57:12 10° ESE visible
13 Sep 4.0 02:32:54 10° NNW 02:39:02 61° W 02:45:03 10° S visible
14 Sep 5.6 01:13:10 10° NNE 01:18:43 33° ENE 01:24:09 10° SE visible
14 Sep 4.6 02:58:33 10° NNW 03:03:57 32° W 03:09:17 10° SSW visible
14 Sep 7.2 16:28:35 10° W 16:31:32 13° WNW 16:34:30 10° NW visible
15 Sep 4.4 01:37:53 10° N 01:44:02 61° E 01:50:05 10° SSE visible
16 Sep 6.6 00:19:53 10° NE 00:23:10 15° ENE 00:26:25 10° E visible
16 Sep 3.8 02:02:59 10° N 02:09:11 73° W 02:15:16 10° S visible
17 Sep 5.8 00:43:32 10° NNE 00:48:45 27° ENE 00:53:51 10° SE visible
17 Sep 4.4 02:28:29 10° NNW 02:34:09 38° W 02:39:44 10° SSW visible
18 Sep 4.7 01:08:05 10° N 01:14:07 51° E 01:20:02 10° SSE visible
18 Sep 5.1 02:54:36 10° NW 02:58:57 20° W 03:03:16 10° SW visible
18 Sep 6.7 23:50:59 10° NE 23:53:08 12° ENE 23:55:15 10° E visible
19 Sep 3.8 01:33:06 10° N 01:39:19 87° W 01:45:25 10° S visible
20 Sep 6.0 00:13:59 10° NNE 00:18:45 23° ENE 00:23:18 11° ESE visible
20 Sep 4.1 01:58:28 10° NNW 02:04:20 46° W 02:07:42 24° SSW visible
21 Sep 5.0 00:38:21 10° N 00:44:11 42° ENE 00:45:46 36° ESE visible
21 Sep 4.9 02:24:22 10° NNW 02:29:10 24° W 02:30:16 23° W visible
